Regional Weather Roundup
Issued by NWS Goodland, KS

Home | Current Version | Previous Version | Text Only | Print | Product List | Glossary Off
Versions: 1 2 3 4 5 6 7 8 9 10 11 12 13 14 15 16 17 18 19 20 21 22 23 24 25 26 27 28 29 30 31 32 33 34 35 36 37 38 39 40 41 42 43 44 45 46 47 48 49 50

000
ASUS43 KGLD 231208
RWRGLD

GOODLAND FORECAST AREA HOURLY WEATHER ROUNDUP
NATIONAL WEATHER SERVICE GOODLAND KS
600 AM MDT WED JUL 23 2014

...OFFICIAL OBSERVATIONS...

CITY           SKY/WX    TMP DP  RH WIND       PRES   REMARKS
GOODLAND KS    CLOUDY    68  67  96 E13       30.31R
HILL CITY KS   CLOUDY    72  66  81 SE7       30.23F
IMPERIAL NEB   CLOUDY    68  65  90 SE14      30.28S
MCCOOK NEB     PTCLDY    67  63  87 E7        30.27R
AKRON CO       CLOUDY    66  64  93 SE15      30.33R FOG
BURLINGTON CO  CLOUDY    67  66  97 E14       30.32R FOG
LIMON CO       CLEAR     55  53  93 CALM      30.35S
$$

...UNOFFICIAL OBSERVATIONS...

CITY           SKY/WX    TMP DP  RH WIND       PRES   REMARKS
COLBY KS       CLOUDY    70  70 100 E15       30.28F FOG
GOVE KS          N/A     70  32  24 MISG        N/A
NORTON KS      CLEAR     68  61  77 E6        30.25R
OBERLIN KS     FAIR      68  64  88 NE7       30.28R
SHARON SPRINGS   N/A     70  68  94 E14G21      N/A
ST FRANCIS KS  CLOUDY    70  64  83 SE17      30.26F FOG
TRIBUNE KS     CLEAR     63  55  77 NE7       30.29R
WAKEENEY KS      N/A     70  68  92 MISG        N/A
KIT CARSON CO    N/A     66  60  80 N5          N/A
WRAY CO          N/A     70  68  94 SE16G22   30.28F
YUMA CO          N/A     68  66  94 SE16        N/A
$$


USA.gov is the U.S. government's official web portal to all federal, state and local government web resources and services.